Home   Weather   Alexandria   Past weeks

Flag for USA Past Weather in Alexandria, Virginia, USA — Yesterday and Last 2 Weeks

Now
89 °F

Broken clouds.


Feels Like: 94 °F
Forecast: 68 / 88 °F
Wind: 13 mph from South

Location: Reagan National Airport

Current Time: Aug 31, 2016 at 5:54:11 PM

Latest Report: Aug 31, 2016 at 4:52 PM


Visibility: 10 mi

Pressure: 29.87 "Hg

Humidity: 53%

Dew Point: 70 °F

Location of AlexandriaLocation

Past Weather in Alexandria — Graph

°F

Alexandria Temperature Yesterday

Maximum temperature yesterday: 90 °F (at 4:52 PM)
Minimum temperature yesterday: 75 °F (at 6:52 AM)
Average temperature yesterday: 82 °F

High & Low Weather Summary for the Past Weeks

 TemperatureHumidityPressure
High96 °F (Aug 16, 3:52 PM)94% (Aug 18, 1:52 AM)30.35 "Hg (Aug 18, 1:52 AM)
Low67 °F (Aug 23, 6:52 AM)35% (Aug 20, 5:52 PM)29.74 "Hg (Aug 21, 2:52 PM)
Average82 °F64%30.07 "Hg
* Reported Aug 16 3:52 PM — Aug 31 3:52 PM, Alexandria, Weather by CustomWeather, © 2016

Note: Actual official high and low records may vary slightly from our data, if they occured in-between our weather recording intervals... More about our weather records

Advertising

Alexandria Weather History for the Previous 24 Hours

Scroll right to see more
 ConditionsComfort  
Time TempWeatherWind HumidityBarometerVisibility
3:52 PM
Wed, Aug 31
91 °FPartly sunny.13 mph52%29.89 "Hg10 mi
2:52 PM87 °FScattered clouds.10 mph57%29.91 "Hg10 mi
1:52 PM87 °FScattered clouds.10 mph57%29.93 "Hg10 mi
12:52 PM89 °FScattered clouds.10 mph55%29.96 "Hg10 mi
11:52 AM87 °FScattered clouds.14 mph59%29.98 "Hg10 mi
10:52 AM84 °FScattered clouds.9 mph65%29.99 "Hg10 mi
9:52 AM81 °FScattered clouds.7 mph74%30.00 "Hg10 mi
8:52 AM78 °FPassing clouds.3 mph79%30.01 "Hg10 mi
7:52 AM76 °FPassing clouds.No wind82%30.02 "Hg10 mi
6:52 AM74 °FPassing clouds.No wind79%30.02 "Hg10 mi
5:52 AM74 °FPartly cloudy.3 mph79%30.02 "Hg10 mi
4:52 AM74 °FPassing clouds.3 mph79%30.02 "Hg10 mi
3:52 AM75 °FPassing clouds.No wind74%30.03 "Hg10 mi
2:52 AM76 °FPassing clouds.No wind74%30.04 "Hg10 mi
1:52 AM74 °FPassing clouds.3 mph76%30.04 "Hg10 mi
12:52 AM78 °FPassing clouds.No wind64%30.05 "Hg10 mi
11:52 PM
Tue, Aug 30
78 °FPassing clouds.No wind64%30.05 "Hg10 mi
10:52 PM79 °FPassing clouds.3 mph65%30.05 "Hg10 mi
9:52 PM80 °FPassing clouds.3 mph60%30.05 "Hg10 mi
8:52 PM82 °FPassing clouds.5 mph51%30.04 "Hg10 mi
7:52 PM82 °FBroken clouds.No wind53%30.03 "Hg10 mi
6:52 PM85 °FPartly sunny.9 mph51%30.03 "Hg10 mi
5:52 PM87 °FPartly sunny.12 mph51%30.03 "Hg10 mi
Weather by CustomWeather, © 2016

See weather overviewHow to use our weather pages